This demonstration page uses our WeatherBlox Daily Observations layout. Learn more.

Left ArrowRight Arrow

34.02893, -84.19858

Hourly Observations for November 17, 2019

Temp ( °F °C ) Dew Point ( °F °C ) Humidity (%) Winds ( mph kmh ) Pressure ( in mb ) Visibility ( mi km ) Precip ( " mm )
12:53 am 00:53 Mostly Clear 41 5 37 2.8 86 86 Calm 30.06 1018 10 16 0.00 0.00
1:53 am 01:53 Clear 41 5 36 2.2 82 82 Calm 30.06 1018 10 16 0.00 0.00
2:53 am 02:53 Clear 43 6.1 35 1.7 74 74 Calm 30.04 1017 10 16 0.00 0.00
3:53 am 03:53 Cloudy 44 6.7 37 2.8 76 76 Calm 30.05 1018 10 16 0.00 0.00
4:53 am 04:53 Cloudy 45 7.2 37 2.8 74 74 N 5 7 30.06 1018 10 16 0.00 0.00
5:53 am 05:53 Cloudy 45 7.2 36 2.2 71 71 N 3 6 30.08 1019 10 16 0.00 0.00
6:01 am 06:01 Cloudy 45 7.2 36 2.2 71 71 NNE 3 6 30.09 1019 10 16 0.00 0.00
6:53 am 06:53 Cloudy 45 7.2 35 1.7 68 68 NNE 6 9 30.08 1019 10 16 0.00 0.00
7:53 am 07:53 Cloudy 47 8.3 34 1.1 61 61 NNE 5 7 30.09 1019 10 16 0.00 0.00
8:53 am 08:53 Cloudy 48 8.9 33 0.6 56 56 Calm 30.09 1019 10 16 0.00 0.00
9:33 am 09:33 Partly Cloudy 50 10 34 1.1 54 54 Calm 30.08 1019 10 16 0.00 0.00
9:41 am 09:41 Mostly Cloudy 50 10 34 1.1 54 54 Calm 30.08 1019 10 16 0.00 0.00
9:53 am 09:53 Mostly Cloudy 52 11.1 36 2.2 55 55 Calm 30.08 1019 10 16 0.00 0.00
10:41 am 10:41 Cloudy 54 12.2 38 3.3 55 55 Calm 30.06 1018 10 16 0.00 0.00
10:53 am 10:53 Cloudy 54 12.2 38 3.3 55 55 Calm 30.07 1018 10 16 0.00 0.00
11:53 am 11:53 Mostly Cloudy 60 15.6 43 6.1 53 53 N 3 6 30.03 1017 10 16 0.00 0.00
12:53 pm 12:53 Sunny 63 17.2 45 7.2 52 52 VRB 3 6 29.97 1015 10 16 0.00 0.00
1:53 pm 13:53 Mostly Cloudy 63 17.2 46 7.8 54 54 W 3 6 29.95 1014 10 16 0.00 0.00
2:53 pm 14:53 Cloudy 63 17.2 46 7.8 54 54 SW 3 6 29.93 1014 10 16 0.00 0.00
3:53 pm 15:53 Cloudy 63 17.2 47 8.3 56 56 Calm 29.91 1013 10 16 0.00 0.00
4:53 pm 16:53 Cloudy 62 16.7 47 8.3 58 58 W 3 6 29.92 1013 10 16 0.00 0.00
6:53 pm 18:53 Cloudy 59 15 49 9.4 69 69 S 3 6 29.92 1013 10 16 0.00 0.00
7:53 pm 19:53 Cloudy 58 14.4 49 9.4 72 72 SSE 3 6 29.91 1013 10 16 0.00 0.00
8:53 pm 20:53 Cloudy 57 13.9 49 9.4 74 74 Calm 29.91 1013 10 16 0.00 0.00
9:53 pm 21:53 Cloudy 56 13.3 50 10 81 81 Calm 29.90 1013 10 16 0.00 0.00
10:53 pm 22:53 Cloudy 55 12.8 50 10 83 83 Calm 29.89 1012 10 16 0.00 0.00
11:53 pm 23:53 Partly Cloudy 54 12.2 50 10 87 87 SSE 3 6 29.88 1012 10 16 0.00 0.00

Powered by AerisWeather